Home > Time Zones > World Clock > Weather > U.S.A. > Hilo > Past weeks

Flag for U.S.A. Weather past 2 weeks in Hilo, Hawaii, U.S.A.

Now
84 °F

Scattered clouds.


Feels Like: 90 °F
Forecast: 72 / 85 °F
Wind: 10 mph from Southeast

Location: Hilo International Airport

Current Time: Jun 29, 2015 at 1:30:44 PM

Latest Report: Jun 29, 2015 at 12:53 PM


Visibility: 10 mi

Pressure: 29.96 "Hg

Humidity: 67%

Dew point: 72 °F

Location of HiloLocation

Historic Weather in Hilo — Graph

°F

Hilo temperature yesterday

Maximum temperature yesterday: 86 °F (at 11:53 AM)
Minimum temperature yesterday: 72 °F (at 2:53 AM)
Average temperature yesterday: 79 °F

Past Weeks' High & Low Weather Summary

 TemperatureHumidityPressure
High86 °F (Jun 27, 10:53 AM)100% (Jun 17, 5:02 AM)30.07 "Hg (Jun 17, 5:02 AM)
Low69 °F (Jun 16, 3:53 AM)56% (Jun 20, 7:53 PM)29.90 "Hg (Jun 14, 4:53 PM)
Average76 °F80%30.00 "Hg
* Reported Jun 14 11:53 AM — Jun 29 11:53 AM, Hilo, Weather by CustomWeather, © 2015

Note: Actual official high and low records may vary slightly from our data, if they occured in-between our weather recording intervals... More about our weather records

Advertising

Hilo weather history for previous 24 hours

 ConditionsComfort  
Time TempWeatherWind HumidityBarometerVisibility
11:53 AM
Mon, Jun 29
83 °FBroken clouds.7 mph68%29.98 "Hg10 mi
10:53 AM81 °FMostly cloudy.7 mph74%29.99 "Hg10 mi
10:19 AM79 °FRain. Mostly cloudy.No wind84%30.00 "Hg9 mi
10:05 AM79 °FLight rain. Partly sunny.5 mph79%30.00 "Hg9 mi
9:53 AM80 °FBroken clouds.6 mph74%29.99 "Hg10 mi
8:53 AM77 °FOvercast.8 mph82%30.00 "Hg10 mi
7:53 AM73 °FMore clouds than sun.5 mph88%30.00 "Hg10 mi
6:53 AM71 °FFog.6 mph96%29.99 "Hg6 mi
6:29 AM72 °FLight rain. Fog.6 mph94%29.99 "Hg4 mi
6:18 AM72 °FLight rain. Fog.7 mph94%29.99 "Hg2 mi
5:53 AM72 °FMostly cloudy.7 mph93%29.97 "Hg10 mi
5:35 AM72 °FLight rain. Fog.8 mph94%29.98 "Hg6 mi
5:18 AM72 °FLight rain. Fog.6 mph94%29.98 "Hg2 mi
4:53 AM71 °FOvercast.No wind93%29.97 "Hg7 mi
3:53 AM73 °FOvercast.3 mph94%29.96 "Hg9 mi
3:20 AM73 °FMostly cloudy.No wind89%29.96 "Hg8 mi
2:53 AM75 °FMostly cloudy.No wind82%29.96 "Hg10 mi
1:53 AM74 °FLight rain. Fog.3 mph91%29.96 "Hg6 mi
12:53 AM75 °FMostly cloudy.3 mph90%29.98 "Hg10 mi
12:12 AM75 °FMostly cloudy.5 mph89%30.00 "Hg10 mi
11:53 PM
Sun, Jun 28
76 °FMostly cloudy.5 mph85%29.99 "Hg10 mi
10:53 PM77 °FMostly cloudy.3 mph85%30.01 "Hg10 mi
10:27 PM77 °FMostly cloudy.5 mph83%30.01 "Hg10 mi
9:53 PM77 °FPassing clouds.No wind85%30.00 "Hg10 mi
8:53 PM77 °FPassing clouds.3 mph82%29.99 "Hg10 mi
7:53 PM77 °FClear.No wind82%29.97 "Hg10 mi
6:53 PM79 °FBroken clouds.5 mph77%29.95 "Hg10 mi
5:53 PM81 °FSunny.3 mph72%29.94 "Hg10 mi
4:53 PM84 °FPassing clouds.8 mph65%29.93 "Hg10 mi
3:53 PM85 °FPassing clouds.N/A59%29.93 "Hg10 mi
1:53 PM86 °FPassing clouds.8 mph61%29.97 "Hg10 mi
Weather by CustomWeather, © 2015

See weather overviewHow to use our weather pages